Monday, February 25, 2013

Avoca, PA
on Tuesday, January 8, 2013

Tuesday
Previous Day Next Day
Daily Summary
 ActualAverageRecord
Temperature
Mean Temperature °F 26°F  
Max Temperature 42°F 33°F 67°F (2008)
Min Temperature 22°F 19°F -8°F (1942)
Degree Days
Heating Degree Days 33 39  
Month to date heating degree days 293 311  
Since 1 July heating degree days 2407 2689  
Cooling Degree Days 0 0  
Month to date cooling degree days 0 0  
Year to date cooling degree days 0 0  
Moisture
Dew Point 23°F   
Average Humidity 67    
Maximum Humidity 88    
Minimum Humidity 45    
Precipitation
Precipitation 0.00 in 0.07 in 0.85 in (1978)
Month to date precipitation 0.03 0.57  
Year to date precipitation 0.03 0.57  
Wind
Wind Speed 3 mph   
Max Wind Speed 13 mph   
Max Gust Speed 18 mph   
Visibility 8 miles   
Events     

Key: T is trace of precipitation, MM is missing value
Source: NWS Daily Summary
Time(EST)TemperatureDew PointHumidity Pressure Visibility Wind DirectionWind SpeedGust SpeedPrecipitationEvents Conditions
12:54 AM 27.0°F 21.9°F 81% 30.33 in 6.0 miles Calm Calm - N/A   Haze
1:54 AM 26.1°F 21.0°F 81% 30.32 in 6.0 miles Calm Calm - N/A   Haze
2:54 AM 26.1°F 21.0°F 81% 30.31 in 6.0 miles Calm Calm - N/A   Haze
3:54 AM 27.0°F 21.9°F 81% 30.32 in 6.0 miles Calm Calm - N/A   Haze
4:54 AM 25.0°F 19.9°F 81% 30.31 in 6.0 miles Calm Calm - N/A   Haze
5:54 AM 25.0°F 21.0°F 85% 30.34 in 6.0 miles Calm Calm - N/A   Clear
6:54 AM 23.0°F 19.9°F 88% 30.35 in 5.0 miles Calm Calm - N/A   Clear
7:54 AM 25.0°F 21.0°F 85% 30.36 in 5.0 miles Calm Calm - N/A   Clear
8:54 AM 30.9°F 23.0°F 72% 30.36 in 6.0 miles Calm Calm - N/A   Haze
9:54 AM 32.0°F 23.0°F 69% 30.37 in 6.0 miles Calm Calm - 0.01 in   Haze
10:54 AM 34.0°F 24.1°F 67% 30.36 in 5.0 miles Calm Calm - N/A   Haze
11:54 AM 37.0°F 25.0°F 62% 30.35 in 7.0 miles WSW 8.1 mph - N/A   Clear
12:54 PM 39.0°F 25.0°F 57% 30.34 in 8.0 miles SW 9.2 mph 17.3 mph N/A   Clear
1:54 PM 39.9°F 24.1°F 53% 30.32 in 9.0 miles SW 12.7 mph - N/A   Clear
2:54 PM 42.1°F 23.0°F 47% 30.32 in 10.0 miles WSW 5.8 mph - N/A   Clear
3:54 PM 41.0°F 23.0°F 49% 30.33 in 10.0 miles SW 6.9 mph - N/A   Clear
4:54 PM 39.9°F 23.0°F 51% 30.35 in 10.0 miles SW 6.9 mph - N/A   Clear
5:54 PM 37.0°F 24.1°F 59% 30.36 in 10.0 miles Calm Calm - N/A   Clear
6:54 PM 37.9°F 24.1°F 57% 30.37 in 9.0 miles SSW 3.5 mph - N/A   Clear
7:54 PM 35.1°F 24.1°F 64% 30.37 in 9.0 miles Calm Calm - N/A   Clear
8:54 PM 32.0°F 24.1°F 73% 30.37 in 8.0 miles SSW 3.5 mph - N/A   Clear
9:54 PM 30.9°F 23.0°F 72% 30.37 in 8.0 miles Calm Calm - N/A   Clear
10:54 PM 30.0°F 23.0°F 75% 30.39 in 9.0 miles Calm Calm - N/A   Clear
11:54 PM 30.0°F 23.0°F 75% 30.38 in 9.0 miles ESE 4.6 mph - N/A   Clear
Astronomy
Sunrise:07:28 AM (EST) Moon Rise:03:58 AM (EST)1/8
Sunset:04:51 PM (EST) Moon Set:01:51 PM (EST)1/8
Moon Phase
Jan. 08 Jan. 11 Jan. 18 Jan. 26 Feb. 03

Copyright © 2014 The Weather Underground, Inc.
8,